Regional Weather Roundup
Issued by NWS Huntsville, AL

Home | Current Version | Previous Version | Text Only | Print | Product List | Glossary On
Versions: 1 2 3 4 5 6 7 8 9 10 11 12 13 14 15 16 17 18 19 20 21 22 23 24 25 26 27 28 29 30 31 32 33 34 35 36 37 38 39 40 41 42 43 44 45 46 47 48 49 50
000
ASUS44 KHUN 220710
RWRHUN

WEATHER ROUNDUP FOR THE TENNESSEE VALLEY
NATIONAL WEATHER SERVICE HUNTSVILLE AL
100 AM CST MON DEC 22 2014

ALZ001>004-220800-
NORTHWEST ALABAMA

CITY           SKY/WX    TMP DP  RH WIND       PRES   REMARKS
SHOALS AIRPORT CLOUDY    48  43  82 E5        29.99F
$$

ALZ005>007-016-220800-
NORTH CENTRAL ALABAMA

CITY           SKY/WX    TMP DP  RH WIND       PRES   REMARKS
DECATUR AP     CLOUDY    50  46  86 SE8       30.00F
HUNTSVILLE AP  CLOUDY    51  45  79 SE10      29.99F
HUN NWS/UAH      N/A     49  44  82 SE9         N/A
MERIDIANVILLE  CLOUDY    48  41  76 SE9       30.00F
REDSTONE ARSN  CLOUDY    50  46  87 SE9       29.99F
VINEMONT AP    CLOUDY    48  46  91 SE7       30.01F FOG
$$

ALZ008>010-220800-
NORTHEAST ALABAMA

CITY           SKY/WX    TMP DP  RH WIND       PRES   REMARKS
ALBERTVILLE    CLOUDY    46  46 100 E7        30.00F
FORT PAYNE     CLOUDY    46  41  81 SE3       30.02F
SCOTTSBORO AP  CLOUDY    50  45  81 W3        30.03F
VALLEY HEAD      N/A     48 N/A N/A MISG        N/A
$$

TNZ076-096-097-220800-
SOUTHEASTERN MIDDLE TENNESSEE

CITY           SKY/WX    TMP DP  RH WIND       PRES   REMARKS
TULLAHOMA      CLOUDY    46  43  87 SE8       30.00S
WINCHESTER     CLOUDY    46  43  87 SE8       30.00F
$$

...SURROUNDING SITES...

CITY           SKY/WX    TMP DP  RH WIND       PRES   REMARKS
ATLANTA        DRIZZLE   47  44  90 E13       30.06S FOG
ANNISTON       CLOUDY    49  46  90 NE7       30.03F FOG
BIRMINGHAM     CLOUDY    50  46  86 E7        30.02F
CHATTANOOGA    CLOUDY    46  40  79 CALM      30.05F
CORINTH        CLOUDY    48  43  81 SE8       29.94F
DALTON         CLOUDY    46  45  93 CALM      30.05F
GADSDEN        CLOUDY    48  43  81 E6        30.03F
GOLDEN TRNGL   CLOUDY    50  46  87 SE8       29.96F
HALEYVILLE     CLOUDY    48  47  97 SE7       29.99F
JACKSON TN     CLOUDY    44  40  85 SE5       29.92F
LEWISBURG      CLOUDY    45  43  93 SE6       29.98F
MEMPHIS        CLOUDY    48  42  80 SE13      29.89F
MURFREESBORO   CLOUDY    46  43  90 SE5       30.00F
NASHVILLE      PTCLDY    42  39  89 S9        30.00F
OXFORD MS      CLOUDY    45  43  93 SE5       29.94F FOG
ROME           CLOUDY    50  43  77 SE8       30.05F
SAVANNAH       PTCLDY    43  43 100 S5        29.95F
TUPELO         CLOUDY    48  45  89 S6        29.95F
TUSCALOOSA     CLOUDY    53  49  86 VRB6      29.98F
$$

...GULF COAST WEATHER...

CITY           SKY/WX    TMP DP  RH WIND       PRES   REMARKS
GULFPORT       CLOUDY    56  54  93 E6        29.93F FOG
PASCAGOULA     CLOUDY    57  55  93 E3        29.95S
MOBILE         CLOUDY    54  54 100 E6        29.96S
GULF SHORES    CLOUDY    56  55  96 E3        29.97R
DESTIN         FOG       56  56 100 NE5       29.98R VSB 1
APPALACHICOLA  FOG       62  59  90 E7        29.96F VSB 3/4
$$




USA.gov is the U.S. government's official web portal to all federal, state and local government web resources and services.